Regional Weather Roundup
Issued by NWS

Home | Current Version | Previous Version | Text Only | Print | Product List | Glossary Off
Versions: 1 2 3 4 5 6 7 8 9 10 11 12 13 14 15 16 17 18 19 20 21 22 23 24 25 26 27 28 29 30 31 32 33 34 35 36 37 38 39 40 41 42 43 44 45 46 47 48 49 50

000
ASUS43 KOAX 091910
RWRNE

WEATHER ROUNDUP FOR NEBRASKA
NATIONAL WEATHER SERVICE OMAHA NE
200 PM CDT WED JUL 09 2014

NOTES: SATELLITE DATA IS BEING USED TO AUGMENT CLOUD COVER ABOVE
       12000 FEET.
       "FAIR" INDICATES FEW OR NO CLOUDS BELOW 12,000 FEET WITH NO
       SIGNIFICANT WEATHER AND/OR OBSTRUCTIONS TO VISIBILITY.

  * THESE STATIONS DO NOT REPORT WEATHER SUCH AS RAIN...SNOW OR FOG.

NEZ001>004-019>022-054>056-092000-
NEBRASKA PANHANDLE

CITY           SKY/WX    TMP DP  RH WIND       PRES   REMARKS
SCOTTSBLUFF    SUNNY     83  59  44 CALM      30.01F
ALLIANCE       SUNNY     86  54  33 NW7       30.00F
CHADRON        SUNNY     84  58  40 VRB6      29.98F
KIMBALL        SUNNY     86  51  29 S14G23    30.06F
SIDNEY         SUNNY     88  52  29 S15G24    30.03F
$$

NEZ057>060-069>072-079>082-092000-
SOUTHWEST NEBRASKA

CITY           SKY/WX    TMP DP  RH WIND       PRES   REMARKS
NORTH PLATTE   MOSUNNY   84  59  42 S12G23    29.99F
IMPERIAL       PTSUNNY   87  60  40 S22G28    29.99F
LEXINGTON      PTSUNNY   87  56  35 S16       30.03F
MCCOOK         PTSUNNY   87  57  35 S18       30.02F
OGALLALA       PTSUNNY   83  58  42 S17G24    29.99S
$$

NEZ005>010-023>029-035>040-094-092000-
NORTH CENTRAL NEBRASKA

CITY           SKY/WX    TMP DP  RH WIND       PRES   REMARKS
VALENTINE      CLOUDY    71  56  58 N15       30.09R THUNDER
AINSWORTH      PTSUNNY   70  55  59 E10       30.05F
BROKEN BOW     CLOUDY    74  60  61 SE9       30.04F
O`NEILL        CLOUDY    71  56  58 SW8       30.10R THUNDER
ORD            LGT RAIN  75  63  66 E7        30.06F
THEDFORD       MOSUNNY   76  62  60 E15G21    30.06R
$$

NEZ041-046>049-061>064-073>077-083>087-092000-
SOUTH CENTRAL NEBRASKA

CITY           SKY/WX    TMP DP  RH WIND       PRES   REMARKS
GRAND ISLAND   PTSUNNY   80  59  48 SW10      30.07F
AURORA         MOSUNNY   79  60  50 S8        30.07F
HASTINGS       MOSUNNY   82  55  39 S10       30.07F
HEBRON         SUNNY     85  56  36 S9        30.06F
HOLDREGE       MOSUNNY   84  55  36 S12G17    30.06F
KEARNEY *      PTSUNNY   81  61  50 S13       30.07F
YORK           MOSUNNY   81  59  47 S8        30.07F
$$

NEZ011>018-030>034-042>045-092000-
NORTHEAST NEBRASKA

CITY           SKY/WX    TMP DP  RH WIND       PRES   REMARKS
NORFOLK        MOSUNNY   80  56  43 S9        30.06F
ALBION         PTSUNNY   73  61  66 SW7       30.11R
BLAIR          MOSUNNY   80  58  47 SW6       30.07S
FREMONT        MOSUNNY   82  58  43 W6        30.06F
TEKAMAH        SUNNY     82  59  45 SW6       30.04F
WAYNE          PTSUNNY   80  58  47 NW5       30.06F
$$

NEZ050>053-065>068-078-088>093-092000-
SOUTHEAST NEBRASKA

CITY           SKY/WX    TMP DP  RH WIND       PRES   REMARKS
LINCOLN        MOSUNNY   84  56  38 S7        30.06F
OMAHA EPPLEY   MOSUNNY   81  56  42 VRB5      30.05F
BEATRICE       PTSUNNY   79  57  46 S5        30.07F
FALLS CITY     SUNNY     83  59  44 MISG      30.06F
NEBRASKA CITY  SUNNY     79  58  47 S3        30.08S
PLATTSMOUTH    MOSUNNY   81  54  39 CALM      30.07S
$$

NEZ044-045-051>053-067-092000-
OMAHA AREA

CITY           SKY/WX    TMP DP  RH WIND       PRES   REMARKS
OMAHA EPPLEY   MOSUNNY   81  56  42 VRB5      30.05F
BLAIR          MOSUNNY   80  58  47 SW6       30.07S
FREMONT        MOSUNNY   82  58  43 W6        30.06F
MILLARD        MOSUNNY   81  59  46 S3        30.06S
OFFUTT AFB     MOSUNNY   82  60  48 VRB7      30.06F
PLATTSMOUTH    MOSUNNY   81  54  39 CALM      30.07S
WAHOO          FAIR      83  54  36 SE5       30.06F
$$


USA.gov is the U.S. government's official web portal to all federal, state and local government web resources and services.